When you browse on this site, cookies collect data to enhance your experience and personalize the content and advertising you see.
Visit our Privacy Policy to learn more. By continuing to use the site, you agree to this use of cookies and data.
  • In Romania
  • List of Countries
  • For 7 days
  • Water Temperature
  • Satellite Maps
  • Weather Map
  • Weather Widgets
  • user-avatar
    Login

    Hourly Weather Naydenka

    Today, 22 April, Monday

    Time Temperature Precipitation Wind Pressure Humidity
    00:00 +6°C° 0 mm 0 mps 756 mmHg 75%
    01:00 +6°C° 0 mm 0 mps 756 mmHg 77%
    02:00 +6°C° 0 mm 0 mps 756 mmHg 78%
    03:00 +5°C° 0 mm 0 mps 756 mmHg 79%
    04:00 +5°C° 0 mm 0 mps 756 mmHg 79%
    05:00 +5°C° 0 mm 0 mps 756 mmHg 79%
    06:00 +9°C° 0 mm 1 mps 757 mmHg 72%
    07:00 +11°C° 0 mm 1 mps 757 mmHg 65%
    08:00 +13°C° 0 mm 1 mps 757 mmHg 58%
    09:00 +14°C° 0 mm 1 mps 757 mmHg 52%
    10:00 +15°C° 0 mm 2 mps 757 mmHg 47%
    11:00 +17°C° 0 mm 2 mps 757 mmHg 41%
    12:00 +17°C° 0 mm 2 mps 757 mmHg 40%
    13:00 +17°C° 0 mm 3 mps 756 mmHg 39%
    14:00 +18°C° 0 mm 3 mps 756 mmHg 37%
    15:00 +17°C° 0 mm 2 mps 756 mmHg 40%
    16:00 +17°C° 0 mm 2 mps 756 mmHg 42%
    17:00 +17°C° 0 mm 2 mps 756 mmHg 45%
    18:00 +15°C° 0 mm 2 mps 756 mmHg 51%
    19:00 +13°C° 0 mm 2 mps 756 mmHg 58%
    20:00 +10°C° 0 mm 2 mps 756 mmHg 64%
    21:00 +9°C° 0 mm 2 mps 756 mmHg 66%
    22:00 +9°C° 0 mm 2 mps 756 mmHg 69%
    23:00 +8°C° 0 mm 2 mps 756 mmHg 71%

    Tomorrow, 23 April, Tuesday

    Time Temperature Precipitation Wind Pressure Humidity
    00:00 +8°C° 0 mm 2 mps 756 mmHg 71%
    01:00 +8°C° 0 mm 2 mps 757 mmHg 70%
    02:00 +8°C° 0 mm 3 mps 757 mmHg 69%
    03:00 +8°C° 0 mm 2 mps 757 mmHg 71%
    04:00 +7°C° 0 mm 2 mps 757 mmHg 73%
    05:00 +7°C° 0 mm 2 mps 757 mmHg 74%
    06:00 +9°C° 0 mm 3 mps 757 mmHg 69%
    07:00 +10°C° 0 mm 3 mps 757 mmHg 64%
    08:00 +11°C° 0 mm 3 mps 757 mmHg 60%
    09:00 +13°C° 0 mm 3 mps 757 mmHg 54%
    10:00 +14°C° 0 mm 3 mps 757 mmHg 49%
    11:00 +17°C° 0 mm 4 mps 757 mmHg 43%
    12:00 +17°C° 0 mm 4 mps 757 mmHg 42%
    13:00 +18°C° 0 mm 4 mps 757 mmHg 41%
    14:00 +18°C° 0 mm 4 mps 756 mmHg 40%
    15:00 +18°C° 0 mm 3 mps 756 mmHg 42%
    16:00 +18°C° 0 mm 3 mps 756 mmHg 44%
    17:00 +18°C° 0 mm 3 mps 756 mmHg 45%
    18:00 +16°C° 0 mm 3 mps 756 mmHg 52%
    19:00 +14°C° 0 mm 2 mps 756 mmHg 58%
    20:00 +12°C° 0 mm 2 mps 756 mmHg 65%
    21:00 +12°C° 0 mm 2 mps 756 mmHg 68%
    22:00 +10°C° 0 mm 2 mps 756 mmHg 70%
    23:00 +9°C° 0 mm 2 mps 756 mmHg 73%

    Day after tomorrow, 24 April, Wednesday

    Time Temperature Precipitation Wind Pressure Humidity
    00:00 +9°C° 0 mm 2 mps 757 mmHg 75%
    01:00 +8°C° 0 mm 2 mps 757 mmHg 78%
    02:00 +8°C° 0 mm 2 mps 757 mmHg 80%
    03:00 +8°C° 0 mm 2 mps 757 mmHg 80%
    04:00 +7°C° 0 mm 2 mps 757 mmHg 80%
    05:00 +7°C° 0 mm 2 mps 757 mmHg 81%
    06:00 +9°C° 0 mm 2 mps 757 mmHg 73%
    07:00 +11°C° 0 mm 3 mps 758 mmHg 65%
    08:00 +13°C° 0 mm 3 mps 758 mmHg 57%
    09:00 +16°C° 0 mm 3 mps 758 mmHg 52%
    10:00 +17°C° 0 mm 3 mps 757 mmHg 48%
    11:00 +19°C° 0 mm 3 mps 757 mmHg 43%
    12:00 +19°C° 0 mm 3 mps 757 mmHg 42%
    13:00 +20°C° 0 mm 3 mps 757 mmHg 40%
    14:00 +20°C° 0 mm 3 mps 757 mmHg 39%
    15:00 +20°C° 0 mm 3 mps 757 mmHg 42%
    16:00 +20°C° 0 mm 2 mps 756 mmHg 44%
    17:00 +19°C° 0 mm 2 mps 756 mmHg 46%
    18:00 +17°C° 0 mm 2 mps 756 mmHg 53%
    19:00 +15°C° 0 mm 1 mps 756 mmHg 59%
    20:00 +13°C° 0 mm 1 mps 757 mmHg 66%
    21:00 +13°C° 0 mm 1 mps 757 mmHg 68%
    22:00 +12°C° 0 mm 1 mps 757 mmHg 71%
    23:00 +11°C° 0 mm 1 mps 757 mmHg 73%

    25 April, Thursday

    Time Temperature Precipitation Wind Pressure Humidity
    00:00 +11°C° 0 mm 1 mps 757 mmHg 74%
    01:00 +10°C° 0 mm 1 mps 757 mmHg 75%
    02:00 +10°C° 0 mm 1 mps 758 mmHg 77%
    03:00 +8°C° 0 mm 0 mps 758 mmHg 75%
    04:00 +8°C° 0 mm 0 mps 758 mmHg 74%
    05:00 +8°C° 0 mm 0 mps 758 mmHg 73%
    06:00 +11°C° 0 mm 0 mps 758 mmHg 65%
    07:00 +13°C° 0 mm 0 mps 758 mmHg 57%
    08:00 +18°C° 0 mm 1 mps 758 mmHg 49%
    09:00 +19°C° 0 mm 1 mps 758 mmHg 44%
    10:00 +21°C° 0 mm 1 mps 758 mmHg 40%
    11:00 +22°C° 0 mm 1 mps 757 mmHg 35%
    12:00 +23°C° 0 mm 1 mps 757 mmHg 34%
    13:00 +23°C° 0 mm 1 mps 757 mmHg 33%
    14:00 +23°C° 0 mm 1 mps 756 mmHg 32%
    15:00 +23°C° 0 mm 1 mps 756 mmHg 35%
    16:00 +23°C° 0 mm 1 mps 755 mmHg 37%
    17:00 +22°C° 0 mm 1 mps 755 mmHg 40%
    18:00 +20°C° 0 mm 1 mps 755 mmHg 46%
    19:00 +18°C° 0 mm 1 mps 754 mmHg 51%
    20:00 +15°C° 0 mm 1 mps 754 mmHg 57%
    21:00 +14°C° 0 mm 1 mps 754 mmHg 60%
    22:00 +14°C° 0 mm 2 mps 754 mmHg 64%
    23:00 +13°C° 0 mm 2 mps 754 mmHg 67%

    26 April, Friday

    Time Temperature Precipitation Wind Pressure Humidity
    00:00 +12°C° 0 mm 2 mps 753 mmHg 69%
    01:00 +12°C° 0 mm 2 mps 753 mmHg 71%
    02:00 +11°C° 0 mm 1 mps 753 mmHg 73%
    03:00 +10°C° 0 mm 2 mps 753 mmHg 73%
    04:00 +10°C° 0 mm 2 mps 753 mmHg 73%
    05:00 +10°C° 0 mm 2 mps 752 mmHg 73%
    06:00 +13°C° 0 mm 2 mps 752 mmHg 66%
    07:00 +15°C° 0 mm 2 mps 752 mmHg 59%
    08:00 +17°C° 0 mm 3 mps 751 mmHg 51%
    09:00 +18°C° 0 mm 3 mps 751 mmHg 46%
    10:00 +19°C° 0 mm 4 mps 751 mmHg 41%
    11:00 +21°C° 0 mm 4 mps 750 mmHg 35%
    12:00 +21°C° 0 mm 4 mps 750 mmHg 35%
    13:00 +21°C° 0 mm 5 mps 749 mmHg 34%
    14:00 +22°C° 0 mm 5 mps 748 mmHg 33%
    15:00 +22°C° 0 mm 4 mps 748 mmHg 36%
    16:00 +21°C° 0 mm 3 mps 748 mmHg 38%
    17:00 +21°C° 0 mm 3 mps 747 mmHg 41%
    18:00 +19°C° 0 mm 3 mps 747 mmHg 47%
    19:00 +17°C° 0 mm 2 mps 747 mmHg 53%
    20:00 +15°C° 0 mm 2 mps 747 mmHg 60%
    21:00 +15°C° 0 mm 2 mps 747 mmHg 62%
    22:00 +14°C° 0 mm 2 mps 747 mmHg 65%
    23:00 +14°C° 0 mm 2 mps 747 mmHg 67%

    27 April, Saturday

    Time Temperature Precipitation Wind Pressure Humidity
    00:00 +13°C° 0 mm 2 mps 748 mmHg 74%
    01:00 +12°C° 0 mm 2 mps 748 mmHg 80%
    02:00 +10°C° 0 mm 2 mps 748 mmHg 86%
    03:00 +10°C° 0 mm 2 mps 749 mmHg 85%
    04:00 +10°C° 0 mm 2 mps 749 mmHg 84%
    05:00 +9°C° 0 mm 3 mps 750 mmHg 83%
    06:00 +10°C° 0 mm 3 mps 750 mmHg 77%
    07:00 +10°C° 0 mm 3 mps 751 mmHg 71%
    08:00 +10°C° 0 mm 2 mps 751 mmHg 64%
    09:00 +13°C° 0 mm 2 mps 751 mmHg 56%
    10:00 +14°C° 0 mm 2 mps 751 mmHg 48%
    11:00 +15°C° 0 mm 2 mps 752 mmHg 40%
    12:00 +16°C° 0 mm 2 mps 752 mmHg 36%
    13:00 +17°C° 0 mm 2 mps 752 mmHg 32%
    14:00 +17°C° 0 mm 2 mps 752 mmHg 28%
    15:00 +17°C° 0 mm 2 mps 751 mmHg 30%
    16:00 +17°C° 0 mm 2 mps 751 mmHg 31%
    17:00 +16°C° 0 mm 2 mps 751 mmHg 32%
    18:00 +14°C° 0 mm 2 mps 751 mmHg 39%
    19:00 +12°C° 0 mm 2 mps 752 mmHg 45%
    20:00 +9°C° 0 mm 2 mps 752 mmHg 52%
    21:00 +8°C° 0 mm 2 mps 752 mmHg 55%
    22:00 +7°C° 0 mm 2 mps 752 mmHg 59%
    23:00 +6°C° 0 mm 2 mps 752 mmHg 63%
    Show more